Temp
2 2 2 2 2 2 3 2 2 2 3 4 4 4 4 3 3 3 3 4 4 3 4 6 7 6 6 7 4 6 5 5 5 4 4 5 5 6 7 9 11 10 9 9 8 9 9 10 12 10 9 10 11 11
1 2 2 3 2 2 2 2 2 2 3 3 4 4 4 4 3 3 3 4 5 4 4 6 7 7 7 7 6 7 6 7 5 4 4 3 5 5 6 5 9 7 8 7 8 7 9 9 9 10 11 11 11 10
2 2 2 2 2 2 2 2 2 2 3 3 4 4 4 3 3 2 3 4 5 3 2 3 4 7 8 8 8 4 6 7 6 6 4 4 4 5 4 5 8 9 7 4 6 9 8 7 8 9 11 10 10 10
2 2 2 3 2 2 2 2 2 3 3 3 3 3 4 3 2 2 2 3 3 3 1 4 8 7 8 8 8 7 6 6 6 5 3 1 3 6 5 6 5 6 8 8 7 9 9 6 9 9 10 11 11 11
4 4 4 3 2 2 1 2 3 3 3 3 3 3 3 3 2 2 2 2 3 3 3 2 7 9 8 8 8 8 6 5 4 3 1 2 4 4 5 6 6 7 8 5 6 7 5 6 10 13 13 12 10 10
3 3 3 2 2 2 1 2 3 3 3 2 3 3 3 3 2 2 1 1 2 2 2 1 5 7 8 8 7 6 5 4 3 3 2 4 6 5 4 4 7 9 10 10 9 10 10 6 10 14 13 12 13 11
3 3 2 2 1 2 2 3 2 3 2 3 3 3 3 2 2 2 2 2 2 2 2 2 1 6 7 7 5 5 5 4 3 2 2 3 4 5 4 4 7 8 9 10 10 10 10 11 12 12 12 13 13 13
3 3 2 1 1 3 3 2 2 2 2 3 3 3 2 1 1 2 3 3 2 3 3 -0 2 3 8 2 2 4 3 3 3 3 2 3 4 3 4 6 7 8 9 9 10 10 10 11 13 13 13 12 12 10
3 2 2 2 3 3 2 2 2 2 3 3 2 1 1 1 0 1 2 2 1 3 -0 0 1 -1 5 1 1 2 2 1 3 2 4 3 3 3 5 7 8 9 9 10 10 11 11 12 13 12 12 10 8 7
2 3 2 2 2 2 2 1 1 2 1 1 1 1 1 1 1 1 1 1 0 1 0 -0 3 1 3 0 -1 -0 -0 2 2 3 4 4 4 6 7 8 8 9 9 10 9 11 12 11 10 9 9 8 7 6
1 2 2 2 2 2 1 2 1 1 2 3 1 2 1 1 1 1 0 -0 -1 0 2 2 2 2 1 0 1 -0 -0 3 4 5 5 5 5 6 7 7 9 9 11 10 12 12 9 8 7 7 6 6 4 2
1 1 1 1 1 1 1 2 3 3 4 4 3 3 1 1 1 1 -1 1 2 3 3 3 4 3 2 0 -0 0 2 3 4 4 5 5 6 8 7 7 8 9 10 10 10 9 8 7 6 4 3 2 -0 -0
2 2 2 3 2 2 2 2 2 3 4 5 3 3 1 -0 -1 -0 -2 2 0 2 2 3 3 2 3 3 1 2 2 2 4 4 5 6 8 8 9 9 9 9 9 9 9 7 5 3 1 0 -1 -1 -1 -1
1 1 1 1 1 2 2 3 4 4 4 1 0 -2 -1 -1 1 2 3 2 2 3 3 2 3 3 2 3 2 3 3 5 4 3 6 4 6 6 7 6 5 3 3 4 2 0 -0 -1 -1 -1 -1 -0 0 0
2 1 2 2 2 2 3 4 4 4 5 2 3 -0 1 2 3 3 2 2 3 3 2 3 3 3 3 3 3 4 4 5 6 5 5 4 5 5 4 4 3 2 1 1 2 -0 0 -1 -0 -0 1 0 1 0
2 2 3 2 2 3 3 3 4 5 4 3 4 2 1 1 0 -0 1 2 3 2 2 3 3 3 4 4 5 5 6 6 5 4 3 3 4 3 2 2 2 1 1 2 1 1 0 -1 0 1 2 2 2 1
1 1 3 3 2 2 3 3 3 3 2 4 1 2 2 1 1 1 2 2 2 3 4 4 4 5 5 5 5 5 4 4 4 2 1 3 4 3 1 2 2 1 1 2 2 2 2 2 2 2 1 2 1 0
1 1 1 2 2 2 2 3 3 3 3 1 1 1 2 0 1 0 1 3 3 4 3 4 4 6 4 6 4 4 4 2 2 2 2 3 4 2 2 1 1 1 0 2 2 2 2 2 2 1 2 2 1 1
2 2 2 2 2 2 2 3 3 2 2 1 1 1 1 0 1 1 2 2 4 4 3 3 4 4 3 4 4 3 2 2 2 2 1 3 4 2 1 2 2 1 2 3 2 -1 2 2 2 2 2 1 0 1
2 2 2 2 2 2 3 2 4 2 2 2 2 2 2 1 1 1 1 2 3 2 3 4 3 2 2 2 1 1 0 -0 1 1 1 1 0 2 2 1 -1 3 3 3 3 3 3 3 2 2 1 1 0 -1
2 2 2 1 1 2 2 1 2 3 2 2 2 3 2 2 2 1 1 1 2 3 3 2 2 1 3 2 2 1 0 1 1 2 2 2 1 1 1 3 4 4 1 -1 -1 -1 3 2 2 2 1 -0 -1 -1
1 1 0 1 1 1 1 3 2 3 2 2 2 2 2 2 2 2 2 2 2 2 1 1 1 2 2 2 2 3 2 2 2 1 2 1 1 1 2 1 -1 -1 -1 1 1 1 3 3 2 1 -0 -1 -2 -2
1 0 1 1 1 1 1 4 2 3 2 2 3 3 2 3 3 4 2 2 1 1 1 1 2 3 2 3 3 3 3 2 1 -0 -1 -0 -0 0 0 1 1 0 0 1 2 2 1 1 0 -1 -1 -2 -2 -3
1 -0 0 1 1 1 1 1 3 2 2 2 3 3 3 2 3 2 2 1 -0 -0 0 -0 -0 0 1 1 1 -0 -1 -0 0 1 1 -1 0 0 -0 -0 -0 -0 0 0 0 -0 -1 -0 -1 -1 -1 -2 -2 -2
0 -1 -1 -1 1 1 1 1 2 3 2 2 2 2 2 3 1 2 2 -0 -1 -2 -2 -1 -1 -1 -2 -2 -2 -2 -1 -2 -2 -2 -1 -1 -1 -0 0 0 -1 -1 -1 -1 -1 -0 -0 -1 -1 -1 -1 -1 -2 -2
-0 0 0 -0 -1 1 1 1 1 1 1 1 1 2 1 1 1 2 -0 -2 -2 -2 -3 -2 -2 -1 -1 -2 -3 -3 -3 -2 -3 -3 -2 -2 -3 -1 -1 -1 -1 -2 -2 -2 -2 -1 -1 -1 -1 -1 -1 -1 -2 -2
-3 -3 -0 -0 -0 0 -0 -0 2 1 1 -0 1 0 1 0 1 -1 -2 -3 -2 -2 -2 -2 -3 -2 -3 -2 -3 -2 -2 -2 -3 -3 -3 -3 -3 -2 -2 -2 -3 -3 -3 -3 -3 -3 -2 -2 -2 -2 -1 -1 -1 -2
-2 -2 -5 -3 -4 -1 -3 -2 -1 -0 -1 -0 -0 -1 -0 0 -1 -2 -3 -3 -3 -3 -3 -3 -4 -4 -4 -4 -4 -3 -2 -2 -2 -1 -1 -2 -2 -2 -3 -3 -3 -3 -3 -3 -3 -3 -3 -3 -3 -3 -2 -2 -2 -2
-5 -4 -3 -8 -6 -4 -2 -3 -4 -3 -3 -2 -2 -2 -1 -2 -3 -3 -4 -4 -4 -5 -5 -5 -5 -5 -5 -5 -4 -4 -3 -4 -4 -4 -3 -2 -2 -3 -3 -3 -3 -3 -3 -3 -3 -3 -4 -4 -4 -4 -3 -3 -2 -2
-7 -4 -5 -6 -7 -6 -4 -3 -4 -4 -3 -3 -2 -2 -1 -4 -5 -5 -5 -5 -6 -6 -6 -6 -6 -6 -6 -6 -6 -5 -4 -5 -5 -5 -4 -3 -3 -4 -4 -4 -4 -4 -3 -4 -4 -4 -4 -4 -4 -4 -4 -4 -3 -3
-4 -5 -6 -6 -7 -5 -5 -4 -4 -4 -4 -3 -2 -2 -2 -5 -6 -6 -6 -6 -7 -7 -7 -7 -7 -6 -6 -6 -6 -7 -7 -6 -6 -6 -6 -6 -5 -5 -5 -4 -4 -4 -4 -4 -4 -4 -4 -4 -4 -4 -4 -4 -4 -4
-7 -8 -7 -9 -7 -7 -5 -6 -7 -7 -7 -7 -5 -3 -3 -3 -5 -6 -6 -7 -7 -7 -7 -7 -7 -8 -7 -7 -8 -8 -7 -7 -7 -7 -7 -6 -6 -6 -6 -5 -4 -4 -4 -5 -5 -5 -5 -4 -5 -5 -5 -6 -6 -6
-7 -7 -7 -6 -9 -9 -8 -7 -6 -7 -8 -7 -6 -5 -4 -5 -5 -6 -7 -8 -8 -9 -8 -8 -7 -8 -8 -8 -8 -8 -8 -8 -7 -7 -7 -7 -7 -6 -6 -6 -5 -5 -5 -5 -5 -5 -5 -5 -5 -6 -6 -7 -7 -8
Height
636 634 633 635 638 643 649 654 660 666 672 679 685 691 697 703 708 714 716 719 722 723 719 717 714 713 710 707 719 709 714 715 715 721 721 718 719 712 708 687 681 682 691 694 701 697 691 685 679 688 691 686 683 681
624 625 624 624 628 634 641 648 653 660 667 674 681 687 693 699 705 711 714 716 719 722 718 713 712 710 710 710 710 708 711 709 715 721 724 725 720 718 711 714 686 702 699 705 698 699 686 686 688 688 680 680 679 680
615 615 615 614 617 625 635 642 647 654 662 670 677 684 690 697 702 707 711 714 717 719 717 713 710 706 707 707 708 715 710 708 712 711 719 722 723 715 722 715 697 692 697 712 702 688 689 690 680 683 676 677 678 677
604 603 604 608 614 622 631 638 644 651 659 668 675 682 688 694 700 704 708 712 716 717 721 710 700 700 703 704 706 707 709 710 713 715 720 727 725 707 710 704 706 702 696 693 692 681 680 681 680 677 673 673 673 672
595 594 596 603 613 622 630 635 641 650 659 667 674 681 688 694 699 701 706 711 714 718 714 711 700 698 699 701 702 704 706 709 713 719 723 724 714 715 707 701 697 693 692 704 694 689 698 693 673 664 665 668 670 669
595 596 601 609 617 625 630 635 644 652 660 667 674 681 688 694 699 701 708 710 712 715 715 719 701 696 696 696 698 701 703 706 710 715 717 709 705 710 711 705 682 680 678 676 678 677 680 686 672 663 663 664 662 664
608 609 613 618 625 630 636 642 648 654 661 669 677 683 689 695 699 703 706 706 708 714 714 715 712 692 691 692 695 698 698 703 707 711 711 709 707 704 704 696 685 679 675 672 671 672 670 666 663 660 661 661 662 661
621 622 625 629 634 638 643 648 653 658 666 673 680 687 692 697 702 705 703 702 708 712 712 723 712 701 687 700 704 694 700 700 701 704 703 703 701 701 695 677 677 674 670 670 667 664 664 661 656 658 660 660 662 663
633 633 635 639 643 647 651 654 657 664 671 679 685 690 695 701 705 706 707 708 710 715 720 717 716 721 688 697 699 699 697 707 694 697 694 699 695 688 677 671 669 663 662 662 658 658 653 655 656 658 660 662 664 665
645 645 646 649 652 655 658 661 666 671 677 683 690 696 699 702 704 709 713 714 714 712 712 714 701 707 696 703 711 709 703 700 696 686 681 683 673 662 661 659 658 657 656 656 659 653 651 654 660 662 661 663 664 668
657 656 656 658 660 663 666 670 675 680 685 689 693 697 704 706 708 709 715 719 719 716 706 699 698 700 693 706 706 704 707 693 685 675 674 666 653 648 645 646 645 648 649 649 645 646 652 656 659 660 663 666 669 672
670 668 668 669 672 675 678 682 685 686 686 687 691 701 707 707 708 711 718 710 707 697 691 691 690 690 690 689 702 700 697 691 680 669 668 655 639 631 629 630 635 642 645 648 653 651 653 656 660 664 667 671 673 675
683 682 681 682 684 686 688 690 691 692 691 691 694 699 704 709 719 715 726 703 707 693 691 689 692 692 688 689 696 697 696 688 667 665 657 645 634 629 623 622 627 636 642 646 648 656 657 662 667 668 672 674 675 676
693 693 693 693 693 693 693 694 693 692 691 695 701 715 711 715 703 698 694 693 690 687 689 690 692 690 689 690 691 688 678 669 669 668 647 649 640 638 631 625 632 641 645 649 660 662 664 666 669 672 674 673 673 672
701 700 700 699 699 699 697 696 694 693 692 695 695 708 702 693 689 689 690 690 686 686 688 687 685 685 684 686 680 675 668 661 654 654 646 651 645 645 644 644 646 648 652 657 659 661 664 668 671 671 669 669 669 672
707 706 705 704 703 702 700 698 696 695 693 694 691 696 693 693 695 693 690 687 683 684 684 683 678 679 673 667 665 664 654 648 656 655 655 653 651 650 652 653 655 656 657 658 659 662 665 667 667 667 667 667 668 669
709 708 706 705 705 704 703 701 698 696 695 690 694 687 689 690 689 687 684 683 679 681 676 674 672 654 658 657 657 654 662 658 657 659 658 655 655 655 656 657 658 659 659 659 659 661 663 665 665 665 666 666 666 667
708 707 705 705 706 705 703 701 699 696 693 692 694 688 685 685 685 684 681 678 678 674 675 671 666 659 663 653 661 662 660 661 659 659 659 656 655 656 656 657 658 659 659 659 659 660 660 660 661 662 663 664 665 665
705 705 704 705 706 706 703 699 699 696 691 686 683 681 680 681 678 676 676 676 674 673 674 670 666 666 667 665 664 666 665 665 664 661 658 654 654 654 655 655 655 656 656 656 657 658 659 659 660 661 662 662 662 662
701 702 702 703 706 705 700 696 694 693 687 683 679 679 679 678 675 674 674 673 673 675 673 668 671 672 672 672 672 671 670 668 666 666 664 661 658 656 655 654 653 652 652 653 655 656 658 659 660 659 659 660 660 660
702 701 701 703 704 705 701 695 692 688 684 683 679 677 676 672 673 675 675 672 675 671 671 673 673 673 671 671 670 669 670 669 669 668 666 662 660 658 654 652 650 650 650 652 654 655 656 657 656 657 657 658 659 659
702 702 701 703 702 701 696 690 688 684 686 681 679 675 675 674 672 671 669 673 672 674 675 676 676 673 671 670 669 667 667 667 667 666 665 664 660 657 654 652 649 649 649 650 651 652 653 653 653 655 656 657 658 658
702 702 700 700 700 697 692 685 687 685 686 679 674 672 673 671 667 663 671 671 675 675 675 675 674 671 670 668 667 666 665 664 664 664 663 662 661 658 655 652 650 649 649 650 650 650 651 652 653 654 655 656 656 658
701 701 699 694 691 692 690 688 681 680 676 675 672 673 669 671 667 669 669 678 685 683 681 680 678 675 673 671 672 672 672 669 666 664 663 662 658 657 655 653 651 650 650 650 650 651 651 651 651 652 653 654 655 657
704 703 703 700 693 691 690 684 680 676 678 677 675 675 673 669 674 670 672 687 690 689 688 686 684 682 681 680 678 676 675 673 671 668 665 663 660 657 655 653 652 652 652 652 651 651 650 650 650 651 651 652 654 655
703 702 702 703 700 694 690 689 684 682 680 680 677 672 672 675 675 672 685 693 692 692 691 689 687 684 683 681 679 676 674 672 670 667 665 664 663 660 658 656 653 655 655 654 653 652 651 650 649 649 650 650 652 653
718 719 711 713 709 702 694 690 681 681 681 681 677 678 675 677 673 687 693 696 694 694 692 691 689 688 686 683 679 676 672 671 669 666 663 661 661 660 659 658 658 658 657 655 654 653 653 652 651 650 649 649 650 651
720 720 728 720 717 709 707 695 688 684 685 687 685 684 680 678 686 694 698 698 697 696 694 692 690 689 687 685 682 677 673 670 666 662 658 657 659 660 660 660 659 658 658 657 656 655 654 653 652 651 650 649 648 649
734 729 725 734 725 715 704 704 708 704 706 700 696 692 689 693 698 698 701 700 699 697 694 692 691 689 688 686 683 680 677 673 669 667 665 663 663 664 663 662 661 660 659 657 656 656 654 654 653 652 651 650 649 648
737 729 730 728 729 724 712 711 708 705 704 701 697 694 692 699 704 703 703 701 699 698 697 696 694 692 691 689 686 683 680 679 678 676 672 669 668 668 666 664 662 661 659 658 657 656 655 654 653 653 652 651 651 650
731 728 728 724 725 716 711 706 703 699 696 691 690 689 689 701 705 706 706 705 704 702 699 698 697 696 693 690 689 686 684 683 681 679 676 674 671 668 666 664 663 661 660 658 657 656 655 655 654 654 653 653 653 653
733 732 728 729 720 712 705 704 701 696 692 691 689 685 685 691 701 710 711 709 707 705 704 702 700 699 696 694 692 690 688 685 682 679 677 674 671 668 665 662 661 660 659 658 658 657 656 655 655 655 655 656 656 656
731 728 725 721 724 720 712 710 701 697 693 690 689 690 689 695 702 710 714 714 713 711 709 706 704 702 699 696 693 690 688 685 683 681 678 675 672 668 665 662 661 660 660 659 658 658 657 657 656 657 658 659 659 660
Wind_Speed
26 25 21 26 28 30 28 25 21 27 29 26 27 25 26 25 20 19 12 17 7 2 4 10 6 6 5 2 1 1 3 3 2 3 0 1 2 4 4 5 4 1 3 3 3 5 7 5 2 4 5 5 5 4
25 23 22 21 25 30 30 26 22 31 30 27 26 26 27 23 20 19 7 14 14 2 4 9 9 7 4 3 1 2 0 1 2 1 1 1 1 1 3 3 5 2 3 2 2 3 5 4 8 8 2 3 2 1
21 22 22 20 22 30 28 24 21 32 28 27 25 25 25 23 22 22 13 6 6 2 3 2 6 18 14 9 3 2 2 3 3 2 1 2 4 1 1 3 0 3 3 2 3 3 1 7 7 11 5 5 5 5
22 23 19 16 21 27 27 21 21 28 29 28 25 23 23 22 17 24 15 9 3 2 1 5 14 8 16 14 12 10 5 4 1 1 2 2 2 4 3 4 2 4 4 3 5 8 9 9 15 11 8 8 6 5
14 8 9 20 24 23 21 19 23 30 29 27 25 23 21 19 13 19 16 10 10 1 2 3 11 9 12 12 13 11 7 4 1 1 1 3 2 1 3 5 9 3 5 3 3 2 2 15 11 3 0 5 9 8
11 14 19 23 23 20 17 20 23 24 27 25 23 22 22 18 15 10 2 11 19 5 1 2 4 5 14 19 12 6 5 3 3 3 3 3 5 1 2 4 5 11 13 10 6 7 11 18 17 6 5 5 4 6
20 20 20 23 22 18 18 19 21 17 27 22 22 21 20 19 18 2 1 2 22 10 1 3 3 4 15 6 3 3 7 3 4 3 4 3 3 3 5 15 13 15 15 15 13 10 11 8 3 5 5 5 4 3
21 20 22 23 21 18 20 21 18 23 27 23 22 22 21 18 8 2 8 2 23 3 2 1 4 2 3 2 1 2 3 2 2 4 1 3 2 4 7 8 7 16 19 18 19 15 16 9 1 2 4 4 2 5
24 22 22 23 21 23 21 16 24 27 25 24 26 28 18 4 2 3 9 14 5 2 2 2 2 3 2 1 1 3 2 1 4 4 6 4 5 7 5 8 11 12 8 8 7 10 5 2 0 4 3 7 7 7
24 22 23 23 22 21 19 29 30 33 33 31 15 5 2 3 21 13 2 2 2 2 1 3 2 3 3 1 1 2 1 3 2 5 3 6 13 19 19 14 9 9 10 11 9 6 3 2 5 5 7 6 8 6
25 24 25 24 22 26 33 36 31 31 24 3 2 3 13 21 5 1 2 2 2 2 3 4 6 5 3 2 3 3 2 3 3 4 6 3 5 12 22 23 17 12 4 10 4 2 8 7 6 7 7 8 7 7
28 29 32 34 35 32 31 31 22 4 6 6 13 12 8 2 1 3 3 2 4 4 3 4 4 3 3 3 3 2 3 2 6 2 3 3 3 4 7 20 21 16 11 11 7 8 9 11 8 7 6 5 5 5
23 27 33 35 32 24 17 9 1 13 15 5 3 2 3 2 2 4 4 3 2 2 3 3 3 2 3 2 1 1 3 5 4 2 3 3 4 5 6 9 13 12 9 6 10 7 11 9 10 7 5 4 4 3
23 25 21 15 12 8 10 8 7 6 3 2 3 1 3 3 3 3 3 1 3 0 1 2 2 3 2 4 2 4 5 2 3 2 2 3 5 10 10 10 13 10 12 12 7 7 8 7 6 4 1 2 4 6
17 14 11 11 9 5 3 7 9 9 2 1 2 2 4 4 1 1 1 2 3 2 3 3 3 3 2 3 4 4 3 3 4 1 3 3 6 5 7 8 8 8 7 4 5 6 6 4 2 2 4 4 5 6
8 6 4 3 4 7 9 10 8 5 2 1 3 1 3 1 4 1 3 5 3 4 2 3 3 2 4 3 4 4 3 1 2 1 1 2 5 6 6 7 7 5 4 4 5 5 6 4 1 4 5 6 11 13
4 3 4 6 7 7 9 6 4 2 2 3 3 1 2 3 4 2 2 3 3 1 1 2 4 2 2 2 2 2 1 2 0 1 1 5 4 3 4 3 2 1 2 3 4 5 5 2 2 4 4 8 3 5
7 18 11 9 3 7 4 2 2 2 3 3 1 3 2 3 2 2 2 3 3 2 1 2 2 3 2 3 3 3 3 2 2 2 2 0 2 4 4 5 5 6 6 5 5 5 5 5 3 2 1 2 3 4
8 10 6 8 6 3 2 3 2 3 4 3 3 2 1 2 3 3 3 4 3 1 3 3 3 1 2 2 2 3 4 4 2 3 2 4 2 3 3 4 5 6 6 4 6 3 4 3 1 3 5 2 2 1
5 4 5 6 9 3 3 2 5 3 3 3 1 2 2 2 2 2 2 1 1 1 2 2 1 2 2 2 1 1 2 3 4 3 4 4 3 6 6 3 3 8 8 8 8 8 4 2 4 5 4 4 3 1
5 4 3 10 6 6 3 2 3 3 3 2 2 2 3 1 1 1 2 2 1 2 1 2 2 1 2 1 1 1 2 3 4 4 5 6 7 6 5 11 11 5 2 3 3 1 4 5 6 5 7 5 5 5
1 6 1 7 2 2 3 5 3 1 2 3 2 3 2 1 2 2 2 1 1 1 1 1 2 2 3 3 3 4 4 2 3 4 6 7 5 5 7 6 3 2 1 2 3 2 8 8 5 7 9 7 6 5
3 2 3 7 4 3 5 2 2 2 3 3 1 2 2 2 2 1 1 1 2 2 2 3 4 8 4 7 9 10 7 2 2 2 1 3 9 10 8 7 8 2 1 1 2 2 3 1 6 9 7 9 9 7
2 2 2 2 2 2 1 2 2 2 2 2 2 2 2 1 3 1 1 4 6 6 6 9 6 5 6 8 7 7 15 16 9 8 11 6 5 4 9 7 6 6 5 3 2 2 2 4 7 7 8 9 9 8
2 2 0 3 2 3 3 2 2 2 1 3 2 2 2 1 1 2 2 2 4 5 5 5 5 5 5 4 5 7 14 13 6 6 10 12 10 8 8 7 3 7 8 7 6 5 4 4 5 7 8 9 8 9
2 5 7 8 4 4 3 3 2 2 3 2 3 1 1 1 1 1 3 2 2 3 4 5 5 5 4 4 3 5 9 17 14 5 7 11 13 6 4 4 1 5 11 8 8 7 8 8 4 6 7 9 9 9
4 4 4 4 5 6 4 4 4 3 3 2 1 2 0 2 1 3 3 2 2 4 9 10 9 6 5 8 15 17 16 13 11 12 15 14 14 4 5 3 3 5 8 9 8 9 9 9 8 7 4 3 7 10
3 6 7 9 6 3 4 4 3 5 4 4 5 4 5 4 3 2 3 7 8 8 8 11 12 14 13 15 17 20 17 16 17 14 14 9 5 4 5 6 7 7 6 8 8 8 7 7 7 8 8 6 5 5
4 7 7 6 5 4 4 6 6 5 5 5 4 3 4 3 3 3 6 10 10 11 10 11 14 18 16 18 17 20 16 19 11 9 10 8 4 8 8 6 7 7 8 5 7 9 7 4 4 5 5 6 5 3
3 5 6 6 3 3 5 8 10 5 6 6 3 2 1 3 10 13 12 12 12 11 13 13 14 14 11 12 11 18 17 21 20 12 6 7 7 13 13 12 9 8 7 6 6 4 5 4 2 3 3 4 6 6
5 5 5 6 4 8 8 8 8 7 6 4 5 6 2 4 7 16 15 15 14 14 14 12 12 13 14 11 9 5 6 18 20 19 19 17 15 14 14 13 12 9 6 4 4 4 5 3 3 5 7 7 7 9
4 3 4 5 8 5 7 2 3 3 3 2 3 2 2 3 3 2 17 16 15 13 15 16 13 14 19 13 17 15 14 17 18 18 19 19 18 15 14 13 10 5 4 3 2 2 3 4 6 7 9 11 12 12
4 7 4 3 4 5 3 4 4 3 3 2 2 4 4 3 4 3 9 19 18 17 18 18 17 17 14 19 19 18 16 17 16 17 16 17 16 14 13 11 10 5 4 1 0 2 3 5 9 10 11 12 13 14
Wind_Direction
290 275 278 253 241 233 225 221 231 221 217 215 213 212 211 205 208 207 227 229 212 202 276 279 274 298 341 358 137 239 41 5 56 36 30 97 331 354 306 317 292 239 183 191 199 240 231 360 354 205 198 210 249 332
287 276 277 260 241 227 217 209 227 217 207 208 207 206 207 211 206 203 228 230 238 202 260 312 300 309 300 352 28 359 194 92 191 54 33 50 269 267 310 299 6 35 84 226 198 226 170 171 204 285 280 129 285 253
285 277 281 253 227 211 207 205 221 198 201 199 203 203 206 209 201 197 201 233 195 209 285 224 239 251 240 229 211 119 310 28 36 140 151 206 245 152 235 256 207 354 138 179 10 20 319 255 208 247 214 187 217 194
286 277 267 230 199 191 193 203 206 190 196 194 196 198 200 199 199 201 206 199 157 242 192 271 244 220 229 215 213 214 236 314 9 96 180 197 190 215 242 259 187 194 308 275 271 300 325 280 235 226 222 206 218 227
322 282 223 179 174 175 183 200 191 189 193 190 189 191 191 188 205 206 185 213 203 291 291 299 318 220 189 202 216 234 220 215 180 276 198 222 241 12 275 273 256 208 231 178 248 247 347 293 244 197 29 203 216 221
59 106 134 149 154 160 160 148 159 171 183 175 181 181 177 172 161 126 100 210 192 188 309 333 308 279 209 200 203 215 223 208 183 161 228 232 234 292 263 266 223 224 239 226 243 233 235 217 243 175 216 256 278 160
84 104 120 132 139 140 143 139 143 147 162 163 168 168 165 161 163 142 138 62 192 170 71 305 280 257 227 224 205 204 205 214 170 211 219 227 265 256 246 251 270 285 286 287 287 299 299 290 206 43 56 15 360 354
80 100 120 122 125 130 136 144 137 146 151 155 156 155 147 151 143 279 343 231 165 156 195 223 264 325 186 204 301 212 210 205 235 209 248 197 233 200 246 245 229 246 252 256 263 269 260 255 240 212 234 242 299 50
81 98 115 121 117 120 128 124 135 139 136 137 129 126 113 118 105 187 96 125 118 199 191 202 209 255 347 299 112 342 142 264 215 208 226 188 218 228 221 206 220 249 240 248 277 280 167 81 43 275 68 73 72 62
83 95 104 117 123 125 116 125 120 127 130 128 117 80 107 135 127 109 84 26 351 275 228 232 248 250 87 84 315 8 226 225 238 225 157 217 238 233 234 239 244 245 231 246 263 228 153 216 86 75 70 73 79 69
80 91 100 108 114 120 119 123 127 126 122 105 107 53 130 137 145 176 126 163 210 260 223 231 200 241 293 142 197 184 260 263 271 244 189 233 244 229 231 234 233 244 226 269 186 133 111 111 93 71 57 58 66 68
83 92 99 105 108 110 112 117 124 48 152 165 117 118 142 218 201 138 191 224 212 235 222 185 215 205 253 118 103 279 213 261 251 176 220 244 275 312 222 216 224 223 219 237 56 92 88 79 73 75 68 62 58 29
89 98 107 109 109 108 104 87 51 92 114 112 71 101 133 230 39 178 210 233 238 219 13 26 344 354 360 49 161 153 234 237 304 210 259 259 273 253 276 206 213 199 215 124 90 77 85 81 69 61 67 49 33 347
99 106 107 105 102 93 91 72 35 6 345 112 134 18 169 209 238 203 241 299 278 15 317 152 247 226 181 199 211 233 231 282 263 249 262 313 12 20 27 53 93 87 96 97 118 90 87 82 77 79 102 33 356 354
126 121 95 68 75 95 39 0 356 345 315 339 57 244 212 231 279 108 317 299 270 321 300 275 207 205 166 248 191 245 222 254 221 337 338 332 50 35 46 56 67 74 84 105 112 99 94 103 104 39 14 337 14 312
119 140 284 274 19 11 350 343 347 327 315 278 218 266 258 343 285 267 237 253 239 247 205 222 228 249 200 213 185 221 261 291 10 82 231 22 35 32 43 47 64 85 99 105 111 140 161 164 78 359 346 328 293 272
298 271 292 246 281 318 337 332 326 287 266 260 271 203 209 247 239 247 226 250 167 225 266 223 218 225 136 226 206 205 268 96 159 31 61 66 58 56 57 76 92 136 244 192 155 141 113 48 14 348 324 289 260 246
283 299 277 233 254 321 290 263 271 256 261 254 233 260 229 218 235 272 277 333 331 318 223 258 268 319 286 328 24 2 20 338 53 43 98 318 130 160 181 204 210 218 234 228 173 141 177 201 208 242 36 132 211 295
280 317 263 225 203 304 272 220 216 259 244 231 246 254 207 233 237 235 248 276 275 305 302 289 260 249 48 20 348 6 11 12 331 309 290 338 2 185 206 247 214 214 227 207 179 160 117 75 329 278 289 241 217 207
263 305 294 211 200 285 269 258 189 261 276 264 282 254 220 211 226 179 236 260 292 331 283 241 31 44 34 1 7 328 316 348 359 352 335 344 344 0 316 270 222 238 233 204 174 157 155 291 282 254 236 176 147 3
296 260 195 181 189 226 262 280 239 229 295 280 295 293 264 295 204 202 252 176 197 210 301 50 19 308 1 354 330 78 33 31 0 346 326 323 326 306 294 300 251 234 178 134 140 354 322 287 279 246 201 172 160 146
259 203 185 196 238 269 257 236 228 309 283 257 282 218 249 275 248 219 174 118 231 90 78 128 253 310 6 353 329 338 210 233 337 336 343 338 331 335 331 325 320 265 234 142 128 260 288 291 248 203 183 173 154 141
301 233 220 201 215 228 261 277 210 235 236 254 232 236 279 275 236 138 214 127 55 29 19 30 1 344 330 330 349 4 1 46 337 330 333 335 318 319 319 316 16 37 82 30 350 42 89 262 222 196 188 168 156 153
292 271 303 299 234 252 291 269 236 255 250 255 285 311 269 329 327 33 243 48 23 21 22 13 1 1 1 9 17 31 15 7 355 355 356 353 327 329 334 340 15 49 48 38 21 14 344 276 226 199 193 182 183 178
287 251 346 298 304 290 234 256 253 295 316 360 295 269 271 357 291 262 79 68 20 21 11 358 360 8 360 360 354 348 352 359 348 335 345 5 344 339 346 333 0 57 37 27 14 352 319 285 231 215 210 202 205 199
321 42 360 16 331 323 327 303 305 311 269 258 260 278 19 340 275 360 78 354 8 2 351 344 350 343 347 336 316 319 322 332 325 303 312 353 333 324 336 333 336 59 28 21 15 4 5 3 297 239 230 226 220 215
47 348 18 12 303 284 269 278 282 269 246 253 352 336 330 246 209 75 122 21 359 349 6 9 5 7 344 350 344 334 319 320 317 302 300 296 303 319 20 18 23 10 17 17 20 18 11 8 7 9 335 285 238 224
24 24 355 343 340 292 274 269 289 1 35 357 337 348 349 21 59 61 35 31 26 9 16 26 23 6 1 359 348 357 19 351 345 346 341 292 256 94 55 46 50 37 28 32 22 11 5 4 2 359 1 347 325 251
3 316 329 320 326 302 327 14 10 8 338 328 323 334 3 60 17 53 39 28 31 33 28 17 8 6 11 7 5 5 11 12 5 12 12 26 45 39 30 39 44 32 14 6 12 4 9 20 359 1 1 11 29 111
268 307 306 305 275 274 300 328 308 298 294 268 255 269 180 89 48 52 45 40 38 30 20 16 9 8 356 348 342 360 31 30 27 17 357 14 21 19 12 5 4 1 359 6 8 7 360 359 4 35 63 70 77 86
286 301 300 301 279 294 289 297 290 276 274 251 233 243 173 141 96 42 47 46 39 33 25 11 355 354 346 338 22 358 356 7 13 11 5 360 358 359 358 350 340 336 347 1 10 13 11 30 69 76 81 81 91 99
319 293 298 309 305 286 291 307 273 243 253 228 239 230 164 125 91 55 31 45 33 28 18 9 15 8 4 33 19 14 5 0 3 3 1 355 349 342 340 342 339 337 345 355 26 30 34 89 107 103 101 99 96 101
304 300 279 302 315 333 312 344 285 292 295 263 80 28 45 60 68 90 54 45 42 23 9 3 8 11 26 23 18 13 11 8 4 359 356 358 353 351 353 353 6 359 345 320 113 96 94 108 117 115 113 112 113 113